Regional Weather Roundup
Issued by NWS Sterling, VA

Home | Current Version | Previous Version | Text Only | Print | Product List | Glossary Off
Versions: 1 2 3 4 5 6 7 8 9 10 11 12 13 14 15 16 17 18 19 20 21 22 23 24 25 26 27

000
ASUS41 KLWX 270110
RWRLWX

REGIONAL WEATHER ROUNDUP
NATIONAL WEATHER SERVICE BALTIMORE MD/WASHINGTON DC
900 PM EDT MON SEP 26 2016

Note: "FAIR" indicates few or no clouds below 12,000 feet
with no significant weather and/or obstructions to visibility.
 TC=TEMPERATURE CELSIUS

 * =Non NWS site. Station does not report precipitation (e.g. rain,
    snow, etc.), thunder, or fog.

DCZ001-MDZ009-015-VAZ040>042-051-053>054-270200-
WASHINGTON METRO

CITY           SKY/WX    TMP DP  RH WIND       PRES   REMARKS
WASHINGTON NAT HVY RAIN  67  63  87 S13       30.02F FOG
DULLES         CLOUDY    65  61  87 S10       30.01F
ANDREWS AFB    CLOUDY    66  58  74 S5        30.03S
FT BELVOIR     RAIN      67  60  78 SE5       30.02F
QUANTICO       LGT RAIN  68  62  81 SW12      30.04R
COLLEGE PARK*  CLOUDY    68  55  64 SE7       30.00F
LEESBURG*      RAIN      64  64 100 S9        30.01F
MANASSAS*      CLOUDY    64  63  94 CALM      30.01F
GAITHERSBURG*  CLOUDY    64  57  77 S8        30.06F

$$

MDZ006>007-011-014-270200-
BALTIMORE METRO

CITY           SKY/WX    TMP DP  RH WIND       PRES   REMARKS
BWI AIRPORT    CLOUDY    68  57  68 S5        30.02F
MD SCIENCE CTR   N/A     70  56  61 MISG      30.03S
MARTIN STATE   CLOUDY    72  63  73 S9        30.04S
ANNAPOLIS      CLOUDY    71  58  63 S12       30.03S
FORT MEADE*    CLOUDY    63  59  88 S5        30.05F

$$

MDZ012-015-019>023-270200-
MARYLAND EASTERN SHORE

CITY           SKY/WX    TMP DP  RH WIND       PRES   REMARKS
OCEAN CITY     CLOUDY    74  64  71 S9        30.06S
SALISBURY      CLOUDY    67  62  84 SE3       30.05F
BAY BRIDGE AP* CLOUDY    70  57  64 MISG      30.04S
CAMBRIDGE*     CLOUDY    64  59  82 CALM      30.05S
EASTON*        CLOUDY    68  55  64 SE6       30.08S

$$

MDZ017>025-270200-
SOUTHERN MARYLAND

CITY           SKY/WX    TMP DP  RH WIND       PRES   REMARKS
PATUXENT RIVER CLOUDY    70  59  68 SE3       30.04S
ST INIGOES     CLOUDY    72  60  66 S8        30.04S
LEONARDTOWN*   CLOUDY    68  57  68 SE3       30.06S

$$

MDZ003>005-270200-
NORTH CENTRAL MARYLAND

CITY           SKY/WX    TMP DP  RH WIND       PRES   REMARKS
FREDERICK*     NOT AVBL
HAGERSTOWN APT LGT RAIN  65  60  84 S12       29.97F

$$

MDZ501>502-270200-
WESTERN MARYLAND

CITY           SKY/WX    TMP DP  RH WIND       PRES   REMARKS
OAKLAND*       CLOUDY    59  59 100 NW9       30.05R FOG
CUMBERLAND*    CLOUDY    68  63  83 CALM      30.01R

$$

VAZ025>031-270200-
SHENANDOAH VALLEY

CITY           SKY/WX    TMP DP  RH WIND       PRES   REMARKS
WINCHESTER*    CLOUDY    64  63  94 S7        29.97F
FRONT ROYAL*   MOCLDY    64  63  94 CALM      29.96F
LURAY*         FAIR     N/A N/A N/A SW9       30.00R
NEW MARKET*    FAIR     N/A N/A N/A SW7       29.99R
STAUNTON*      PTCLDY    63  62  98 S5        30.03F FOG
WAYNESBORO*    FAIR      63  62  96 CALM      30.03S

$$

WVZ021-048>050-054>055-270200-
EASTERN WEST VIRGINIA PANHANDLE

CITY           SKY/WX    TMP DP  RH WIND       PRES   REMARKS
MARTINSBURG    CLOUDY    63  61  93 S6        29.96F
PETERSBURG*    MOCLDY    70  66  85 S9        29.97S

$$

VAZ036>039-050-270200-
CENTRAL FOOTHILLS

CITY           SKY/WX    TMP DP  RH WIND       PRES   REMARKS
CHARLOTTESVILL CLOUDY    66  63  90 CALM      30.02F
CULPEPER*      LGT RAIN  65  64  97 S5        30.02F
ORANGE*          N/A     64  64 100 CALM      30.04S
GORDONSVILLE*  NOT AVBL
WARRENTON*     LGT RAIN  65  59  82 S3        30.00F

$$

VAZ055>057-270200-
NORTH AND CENTRAL PIEDMONT

CITY           SKY/WX    TMP DP  RH WIND       PRES   REMARKS
FREDERICKSBRG* RAIN      67  64  92 S6        30.04R
STAFFORD*      TSTM      64  63  96 SE8       30.07F

$$

NCZ024-NYZ072-PAZ021-071-VAZ022-071-270200-
OTHER REGIONAL OBSERVATIONS

CITY           SKY/WX    TMP DP  RH WIND       PRES   REMARKS
NEW YORK CITY  CLOUDY    67  52  58 VRB7      30.08S
PHILADELPHIA   CLOUDY    69  57  65 S7        30.05S
PITTSBURGH     MOCLDY    62  60  93 W5        30.00R
ROANOKE        CLOUDY    67  67 100 SE5       30.07R
RICHMOND       CLOUDY    68  63  84 S6        30.04S
RALEIGH        MOCLDY    72  67  84 VRB5      30.05S

$$

ANZ530>537-270200-
MARINE OBSERVATIONS

STATION/POSITION TIME  TEMP    WIND        PRES
                       AIR SEA DIR/SP/G
                 (UTC) (F)     (DEG/KT/KT) (MB)
THOMAS PT LIGHT  0100   72 74  180/ 17/ 19 1018.0F
BALT KEY BRIDGE  0030   71     160/ 11/ 14 1016.6S
COVE POINT       0030   71     210/  9/ 11 1017.9R
LEWISETTA        0030   70 74  170/  4/  5 1016.8F
SOLOMONS ISLAND  0030   72 76  190/  5/  7   N/A
PINEY POINT      0030          190/  8/  9   N/A

$$





USA.gov is the U.S. government's official web portal to all federal, state and local government web resources and services.